Location: Unspecified
(0.0000°N, 0.0000°E)
Time: 07:01:29
(UTC+00:00)

Courier 1B - Pass Details

Date: 28 September 2023
Orbit: 962 x 1208 km, 28.3° (Epoch: 06 December)

Event Time Altitude Azimuth Distance (km) Brightness Sun altitude
Rises 08:55:06 0° 245° (WSW) 3,774 10.2 46.0°
Reaches altitude 10° 08:57:45 10° 247° (WSW) 2,855 9.7 46.7°
Maximum altitude 09:04:44 71° 330° (NNW) 1,152 8.6 48.4°
Drops below altitude 10° 09:12:12 10° 53° (NE) 3,034 10.7 50.3°
Sets 09:15:05 0° 55° (NE) 4,025 11.2 51.0°
